KC3AWA Weather Reports


time (UTC)temp
F
wind
direction
speed
knots
gust
knots
rain 1hr
in
rain 24hr
in
rain mn
in
humidity
%
barometer
mb
20260503203644 59 232 3.5 5.2 0.00 0.00 0.00 38 1013.2
20260503203141 60 222 3.5 5.2 0.00 0.00 0.00 37 1013.4
20260503202638 61 330 0.9 0.9 0.00 0.00 0.00 35 1013.2
20260503202137 60 159 1.7 3.5 0.00 0.00 0.00 39 1013.7
20260503201634 59 126 5.2 9.6 0.00 0.00 0.00 39 1013.6
20260503201131 58 219 4.3 5.2 0.00 0.00 0.00 40 1013.6
20260503200627 60 226 6.1 7.8 0.00 0.00 0.00 37 1013.8
20260503200124 58 206 7.0 7.8 0.00 0.00 0.00 37 1013.9
20260503195621 58 256 4.3 5.2 0.00 0.00 0.00 37 1013.7
20260503195118 58 225 7.8 12.2 0.00 0.00 0.00 37 1013.9
20260503194615 58 180 0.0 0.9 0.00 0.00 0.00 39 1014.0
20260503194110 59 252 0.9 1.7 0.00 0.00 0.00 41 1014.2
20260503193607 57 203 5.2 7.0 0.00 0.00 0.00 38 1014.4
20260503193102 57 247 4.3 5.2 0.00 0.00 0.00 40 1014.4
20260503192558 57 179 7.0 7.8 0.00 0.00 0.00 38 1014.3
20260503192054 57 134 1.7 2.6 0.00 0.00 0.00 41 1014.3
20260503191551 58 234 3.5 7.0 0.00 0.00 0.00 38 1014.4
20260503191048 59 289 1.7 1.7 0.00 0.00 0.00 38 1014.3
20260503190545 58 253 1.7 2.6 0.00 0.00 0.00 42 1014.7
20260503190042 57 295 0.9 1.7 0.00 0.00 0.00 40 1014.7
20260503185539 57 269 0.9 0.9 0.00 0.00 0.00 40 1014.8
20260503185038 57 287 1.7 3.5 0.00 0.00 0.00 40 1014.7
20260503184535 57 211 2.6 2.6 0.00 0.00 0.00 39 1014.8
20260503184031 58 226 6.1 9.6 0.00 0.00 0.00 40 1014.8
20260503183528 58 192 7.8 9.6 0.00 0.00 0.00 41 1014.7
20260503183025 57 113 3.5 5.2 0.00 0.00 0.00 39 1015.0
20260503182524 55 192 3.5 5.2 0.00 0.00 0.00 40 1015.0
20260503182021 55 211 11.3 19.1 0.00 0.00 0.00 39 1015.1
20260503181518 55 348 1.7 2.6 0.00 0.00 0.00 40 1015.0
20260503181014 57 196 2.6 2.6 0.00 0.00 0.00 39 1015.3
20260503180512 57 150 4.3 5.2 0.00 0.00 0.00 43 1015.2
20260503180009 57 340 3.5 6.1 0.00 0.00 0.00 38 1015.5
20260503175506 57 186 4.3 7.0 0.00 0.00 0.00 39 1015.4
20260503175003 57 282 1.7 2.6 0.00 0.00 0.00 37 1015.2
20260503174501 58 289 2.6 3.5 0.00 0.00 0.00 37 1015.2
20260503173956 57 264 1.7 1.7 0.00 0.00 0.00 42 1015.4
20260503173452 56 172 3.5 3.5 0.00 0.00 0.00 39 1015.5
20260503172948 57 254 7.8 8.7 0.00 0.00 0.00 40 1015.4
20260503172446 56 35 4.3 7.8 0.00 0.00 0.00 43 1015.4
20260503171942 54 192 3.5 3.5 0.00 0.00 0.00 44 1015.4
20260503171439 56 19 3.5 5.2 0.00 0.00 0.00 39 1015.6
20260503170937 56 210 2.6 5.2 0.00 0.00 0.00 37 1015.8
20260503170433 55 80 2.6 3.5 0.00 0.00 0.00 40 1015.6
20260503150825 53 176 3.5 6.1 0.00 0.00 0.00 44 1016.6
20260503150321 51 134 1.7 1.7 0.00 0.00 0.00 45 1016.7
20260503140245 48 276 1.7 2.6 0.00 0.00 0.00 49 1016.8
20260503131215 46 179 2.6 2.6 0.00 0.00 0.00 59 1017.0
20260503130713 46 356 0.0 0.0 0.00 0.00 0.00 61 1017.0
20260503130210 45 282 0.0 0.9 0.00 0.00 0.00 64 1017.3
20260503120135 38 257 0.9 0.9 0.00 0.00 0.00 79 1016.8
20260503110603 33 187 0.0 0.9 0.00 0.00 0.00 89 1016.6
20260503090450 29 237 0.0 0.0 0.00 0.00 0.00 93 1016.1
20260503081416 30 224 0.0 0.0 0.00 0.00 0.00 91 1016.2
20260503080913 30 225 0.0 0.0 0.00 0.00 0.00 90 1016.2
20260503080410 30 202 0.0 0.9 0.00 0.00 0.00 90 1016.2
20260503072846 31 262 0.0 0.0 0.00 0.00 0.00 88 1016.2
20260503072343 31 205 0.9 0.9 0.00 0.00 0.00 87 1016.1
20260503071840 31 273 0.0 0.0 0.00 0.00 0.00 87 1016.2
20260503071337 31 221 1.7 1.7 0.00 0.00 0.00 88 1016.1
20260503070833 31 271 0.0 0.9 0.00 0.00 0.00 87 1016.2
20260503070332 32 267 0.0 0.9 0.00 0.00 0.00 87 1016.1
20260503060302 32 269 0.0 0.0 0.00 0.00 0.00 83 1016.6
20260503054749 33 289 0.0 0.0 0.00 0.00 0.00 82 1016.5
20260503054246 32 243 0.0 0.9 0.00 0.00 0.00 83 1016.4
20260503053744 32 248 0.0 0.0 0.00 0.00 0.00 83 1016.5
20260503053243 32 234 0.9 0.9 0.00 0.00 0.00 84 1016.4
20260503052738 32 243 0.9 0.9 0.00 0.00 0.00 83 1016.5
20260503052235 32 190 0.0 0.0 0.00 0.00 0.00 83 1016.6
20260503051730 32 255 0.0 0.0 0.00 0.00 0.00 83 1016.6
20260503051228 32 272 0.0 0.0 0.00 0.00 0.00 83 1016.6
20260503050724 33 272 0.0 0.0 0.00 0.00 0.00 83 1016.7
20260503050221 33 265 0.0 0.0 0.00 0.00 0.00 82 1016.7
20260503045719 33 266 0.0 0.0 0.00 0.00 0.00 83 1016.8
20260503045216 33 268 0.0 0.0 0.00 0.00 0.00 83 1016.6
20260503044712 33 276 0.0 0.0 0.00 0.00 0.00 83 1016.5
20260503044210 33 279 0.0 0.9 0.00 0.00 0.00 82 1016.5
20260503043706 33 279 0.0 0.0 0.00 0.00 0.00 82 1016.8
20260503043204 33 283 0.0 0.0 0.00 0.00 0.00 81 1016.7
20260503042659 33 276 0.0 0.0 0.00 0.00 0.00 82 1016.8
20260503042156 34 277 0.0 0.0 0.00 0.00 0.00 81 1016.6
20260503041652 34 277 0.0 0.0 0.00 0.00 0.00 79 1016.6
20260503041150 34 276 0.0 0.0 0.00 0.00 0.00 79 1016.7
20260503040648 35 276 0.0 0.0 0.00 0.00 0.00 79 1016.8
20260503040145 35 277 0.0 0.0 0.00 0.00 0.00 78 1016.8
20260503035641 35 248 0.0 0.9 0.00 0.05 0.05 79 1016.7
20260503035139 35 260 0.0 0.0 0.00 0.05 0.05 78 1016.7
20260503034637 35 204 0.9 0.9 0.00 0.05 0.05 77 1016.7
20260503034134 35 321 0.0 0.9 0.00 0.05 0.05 77 1016.6
20260503033630 35 267 0.0 0.0 0.00 0.05 0.05 78 1016.8
20260503033128 35 257 0.0 0.0 0.00 0.05 0.05 77 1016.8
20260503032626 36 257 0.0 0.0 0.00 0.05 0.05 77 1016.7
20260503032125 35 261 0.0 0.0 0.00 0.05 0.05 76 1016.9
20260503031622 35 254 0.0 0.0 0.00 0.05 0.05 75 1016.9
20260503031119 35 250 0.0 0.0 0.00 0.05 0.05 78 1016.9
20260503030615 36 244 0.0 0.0 0.00 0.05 0.05 76 1016.9
20260503030112 36 248 0.0 0.0 0.00 0.05 0.05 76 1016.9
20260503025609 36 227 0.0 0.0 0.00 0.05 0.05 75 1017.0
20260503025107 36 266 0.0 0.9 0.00 0.05 0.05 76 1017.0
20260503024603 36 264 0.0 0.9 0.00 0.05 0.05 77 1017.1
20260503024100 36 239 0.0 0.9 0.00 0.05 0.05 77 1017.0
20260503023557 36 269 0.0 0.0 0.00 0.05 0.05 76 1017.1
20260503023054 36 268 0.0 0.0 0.00 0.05 0.05 74 1016.9
20260503022550 36 271 0.0 0.0 0.00 0.05 0.05 76 1017.1
20260503022045 36 268 0.0 0.0 0.00 0.05 0.05 77 1017.1
20260503021542 36 124 0.0 0.0 0.00 0.05 0.05 77 1017.2
20260503021039 36 250 0.0 0.9 0.00 0.05 0.05 77 1017.2
20260503020536 37 254 0.0 0.0 0.00 0.05 0.05 75 1017.2
20260503020033 37 244 0.9 0.9 0.00 0.05 0.05 74 1017.2
20260503015529 37 268 0.0 0.9 0.00 0.05 0.05 75 1017.1
20260503015027 37 290 0.0 0.0 0.00 0.05 0.05 73 1017.2
20260503014522 37 289 0.0 0.9 0.00 0.05 0.05 75 1016.9
20260503014021 37 289 0.0 0.9 0.00 0.05 0.05 72 1017.0
20260503013518 37 279 0.0 0.0 0.00 0.05 0.05 73 1017.1
20260503013015 37 286 0.0 0.0 0.00 0.05 0.05 72 1017.0
20260503012513 37 355 0.0 0.0 0.00 0.05 0.05 69 1016.9
20260503012009 37 301 0.0 0.0 0.00 0.05 0.05 69 1017.0
20260503011506 38 349 0.0 0.0 0.00 0.05 0.05 69 1016.9
20260503011003 38 224 0.0 0.0 0.00 0.05 0.05 69 1016.7
20260503010459 38 189 0.9 0.9 0.00 0.05 0.05 66 1017.0
20260503005957 38 54 0.9 0.9 0.00 0.05 0.05 68 1016.9
20260503005453 38 234 0.9 0.9 0.00 0.05 0.05 69 1017.0
20260503004950 38 36 0.0 0.0 0.00 0.05 0.05 68 1016.8
20260503004447 38 36 0.0 0.0 0.00 0.05 0.05 67 1016.7
20260503003945 38 307 0.0 0.0 0.00 0.05 0.05 67 1016.8
20260503003441 39 15 0.0 0.0 0.00 0.05 0.05 65 1016.7
20260503002938 39 293 0.0 0.9 0.00 0.05 0.05 65 1016.8
20260503002435 39 283 0.0 0.0 0.00 0.05 0.05 65 1016.7
20260503001932 39 328 0.0 0.0 0.00 0.05 0.05 65 1016.7
20260503001428 39 260 0.0 0.9 0.00 0.05 0.05 63 1016.5
20260503000926 39 156 3.5 6.1 0.00 0.05 0.05 62 1016.8
20260503000423 39 39 0.0 0.0 0.00 0.05 0.05 63 1016.4
20260502235920 39 348 0.0 0.0 0.00 0.05 0.05 62 1016.6
20260502235417 40 3 0.0 0.9 0.00 0.05 0.05 61 1016.5
20260502234914 40 306 0.0 0.9 0.00 0.05 0.05 60 1016.5
20260502234411 40 74 0.9 0.9 0.00 0.05 0.05 60 1016.5
20260502233908 40 272 0.0 0.0 0.00 0.05 0.05 60 1016.4
20260502233403 40 314 3.5 3.5 0.00 0.05 0.05 58 1016.5
20260502232901 40 242 2.6 3.5 0.00 0.05 0.05 57 1016.4
20260502232357 40 317 1.7 2.6 0.00 0.05 0.05 57 1016.6
20260502231854 41 267 0.9 0.9 0.00 0.05 0.05 58 1016.5
20260502231352 41 268 0.0 0.0 0.00 0.05 0.05 58 1016.4
20260502230849 41 245 0.9 0.9 0.00 0.05 0.05 59 1016.6
20260502230347 41 168 2.6 2.6 0.00 0.05 0.05 58 1016.7
20260502225844 41 292 0.0 0.0 0.00 0.05 0.05 61 1016.5
20260502225340 41 329 0.0 0.0 0.00 0.05 0.05 57 1016.3
20260502224838 41 300 0.9 1.7 0.00 0.05 0.05 57 1016.4
20260502224334 41 282 1.7 1.7 0.00 0.05 0.05 57 1016.4
20260502223831 41 285 0.0 0.0 0.00 0.05 0.05 57 1016.4
20260502223329 41 36 0.0 0.0 0.00 0.05 0.05 56 1016.5
20260502222827 41 5 1.7 2.6 0.00 0.05 0.05 57 1016.4
20260502222324 41 250 0.9 1.7 0.00 0.05 0.05 58 1016.4
20260502221819 41 285 0.0 0.0 0.00 0.05 0.05 57 1016.2
20260502221316 42 0 1.7 2.6 0.00 0.05 0.05 56 1016.3
20260502220813 42 357 0.0 0.0 0.00 0.05 0.05 56 1016.2
20260502220309 42 196 1.7 2.6 0.00 0.05 0.05 60 1016.5
20260502215806 42 61 0.9 2.6 0.00 0.05 0.05 56 1016.5
20260502215304 42 183 0.9 0.9 0.00 0.05 0.05 58 1016.4
20260502214800 42 271 0.9 1.7 0.00 0.05 0.05 55 1016.2
20260502214256 42 306 0.0 0.0 0.00 0.05 0.05 57 1016.1
20260502213754 42 358 0.9 0.9 0.00 0.05 0.05 55 1016.4
20260502213251 42 74 0.9 0.9 0.00 0.05 0.05 54 1016.1
20260502212750 42 185 1.7 2.6 0.00 0.05 0.05 55 1016.2
20260502212248 42 166 0.9 1.7 0.00 0.05 0.05 55 1016.0
20260502211743 42 293 2.6 3.5 0.00 0.05 0.05 54 1016.1
20260502211240 42 252 0.9 0.9 0.00 0.05 0.05 52 1015.8
20260502210737 43 205 1.7 2.6 0.00 0.05 0.05 53 1016.1
20260502210235 43 295 0.9 0.9 0.00 0.05 0.05 53 1015.8
20260502205732 43 14 1.7 1.7 0.00 0.05 0.05 53 1015.8
20260502205228 43 353 1.7 1.7 0.00 0.05 0.05 58 1015.8
20260502204725 43 254 0.9 1.7 0.00 0.05 0.05 55 1016.0
20260502204223 43 279 1.7 2.6 0.00 0.05 0.05 58 1015.7